Location: Absher
(46.5583°N, 107.9840°W)
Time: 19:54:24
(UTC+00:00)

QB50P2 - Pass Details

Date: 09 April 2023
Orbit: 581 x 596 km, 98.0° (Epoch: 31 May)

Event Time Altitude Azimuth Distance (km) Brightness Sun altitude
Rises 08:55:25 0° 15° (NNE) 2,825 ? -31.3°
Reaches altitude 10° 08:57:36 10° 18° (NNE) 1,917 ? -31.2°
Enters shadow 08:59:47 30° 26° (NNE) 1,064 ? -31.0°
